Flag for U.S.A. Weather past 2 weeks in Beaumont, Texas, U.S.A.

Now
74 °F

Clear.


Feels Like: 71 °F
Forecast: 73 / 86 °F
Wind: No wind

Location: Jefferson County Airport

Current Time: May 28, 2015 at 2:07:03 AM

Latest Report: May 28, 2015 at 12:53 AM


Visibility: 10 mi

Pressure: 30.07 "Hg

Humidity: 94%

Dew point: 72 °F

Location of BeaumontLocation

Historic Weather in Beaumont — Graph

°F

Beaumont temperature yesterday

Maximum temperature yesterday: 87 °F (at 3:53 PM)
Minimum temperature yesterday: 66 °F (at 6:53 AM)
Average temperature yesterday: 77 °F

Past Weeks' High & Low Weather Summary

 TemperatureHumidityPressure
High89 °F (May 20, 1:53 PM)100% (May 14, 6:53 AM)30.16 "Hg (May 14, 6:53 AM)
Low63 °F (May 22, 6:53 AM)53% (May 27, 2:53 PM)29.87 "Hg (May 25, 4:53 PM)
Average78 °F83%30.03 "Hg
* Reported May 13 12:53 AM — May 28 12:53 AM, Beaumont, Weather by CustomWeather, © 2015

Note: Actual official high and low records may vary slightly from our data, if they occured in-between our weather recording intervals... More about our weather records

Advertising

Beaumont weather history for previous 24 hours

 ConditionsComfort  
Time TempWeatherWind HumidityBarometerVisibility
12:53 AM
Thu, May 28
74 °FClear.No wind94%30.07 "Hg10 mi
11:53 PM
Wed, May 27
73 °FClear.No wind97%30.07 "Hg10 mi
10:53 PM74 °FClear.5 mph94%30.08 "Hg10 mi
9:53 PM74 °FClear.5 mph94%30.07 "Hg10 mi
8:53 PM77 °FSunny.8 mph88%30.06 "Hg10 mi
7:53 PM79 °FSunny.8 mph84%30.04 "Hg10 mi
6:53 PM83 °FSunny.8 mph70%30.02 "Hg10 mi
5:53 PM87 °FSunny.3 mph61%30.01 "Hg10 mi
4:53 PM87 °FPassing clouds.7 mph63%30.03 "Hg10 mi
3:53 PM87 °FSunny.7 mph57%30.04 "Hg10 mi
2:53 PM86 °FSunny.5 mph53%30.05 "Hg10 mi
1:53 PM85 °FSunny.No wind57%30.06 "Hg10 mi
12:53 PM82 °FSunny.7 mph65%30.08 "Hg10 mi
11:53 AM75 °FPartly sunny.7 mph85%30.07 "Hg10 mi
10:53 AM69 °FThundershowers. Partly sunny.10 mph93%30.11 "Hg10 mi
9:53 AM68 °FRain. Fog.15 mph93%30.11 "Hg6 mi
8:53 AM68 °FRain. Partly sunny.5 mph90%30.16 "Hg9 mi
8:03 AM67 °FRain. Mostly cloudy.10 mph93%30.12 "Hg8 mi
6:53 AM66 °FThundershowers. Fog.14 mph96%30.10 "Hg5 mi
5:53 AM77 °FThundershowers. Mostly cloudy.7 mph96%30.06 "Hg9 mi
4:53 AM77 °FOvercast.3 mph94%30.01 "Hg10 mi
3:53 AM77 °FPartly cloudy.7 mph94%30.01 "Hg10 mi
2:53 AM78 °FMostly cloudy.7 mph90%30.03 "Hg9 mi
Weather by CustomWeather, © 2015

See weather overviewHow to use our weather pages